Location: McFarlands Corners
(41.4117°N, 81.3382°W)
Time: 14:20:28
(UTC+00:00)

A-11 Canister half - Pass Details

Date: 19 February 2026
Orbit: 1525 x 1683 km, 47.3° (Epoch: 11 March)

Event Time Altitude Azimuth Distance (km) Brightness Sun altitude
Rises 18:29:50 0° 175° (S) 4,769 12.4 36.2°
Reaches altitude 10° 18:34:51 10° 153° (SSE) 3,756 11.8 36.0°
Maximum altitude 18:39:27 15° 124° (ESE) 3,376 11.1 35.7°
Drops below altitude 10° 18:43:59 10° 94° (E) 3,716 11.0 35.4°
Sets 18:48:50 0° 73° (ENE) 4,686 11.2 35.1°
